This is the latest recevied weather packets stored in our database for station/object W4MLN-3. If no packets are shown the sender has not sent any weather packets the latest 10 day(s).
| Time | Temp. | Humidity | Pressure | Rain* | Wind** | Luminosity | Snow |
|---|---|---|---|---|---|---|---|
| 1788123603 | 25.56° C | 75% | 1023.7 hPa | 0 mm | - | - | - |
| 1788123303 | 25.56° C | 73% | 1023.6 hPa | 0 mm | - | - | - |
| 1788123003 | 25.56° C | 72% | 1023.7 hPa | 0 mm | - | - | - |
| 1788122703 | 26.11° C | 71% | 1023.7 hPa | 0 mm | - | - | - |
| 1788122403 | 26.11° C | 71% | 1023.7 hPa | 0 mm | - | - | - |
| 1788122103 | 26.11° C | 71% | 1023.7 hPa | 0 mm | - | - | - |
| 1788121803 | 26.11° C | 69% | 1023.7 hPa | 0 mm | - | - | - |
| 1788121503 | 26.11° C | 69% | 1023.7 hPa | 0 mm | - | - | - |
| 1788121203 | 26.11° C | 67% | 1023.8 hPa | 0 mm | - | - | - |
| 1788120913 | 26.67° C | 67% | 1023.8 hPa | 0 mm | - | - | - |
| 1788120624 | 26.67° C | 69% | 1023.9 hPa | 0 mm | - | - | - |
| 1788120303 | 27.22° C | 67% | 1023.9 hPa | 0 mm | - | - | - |
| 1788120003 | 27.22° C | 67% | 1023.8 hPa | 0 mm | - | - | - |
| 1788119724 | 27.22° C | 67% | 1023.9 hPa | 0 mm | - | - | - |
| 1788119445 | 27.22° C | 67% | 1023.9 hPa | 0 mm | - | - | - |
| 1788119103 | 26.67° C | 70% | 1023.8 hPa | 0 mm | - | - | - |
| 1788118803 | 26.67° C | 71% | 1024 hPa | 0 mm | - | - | - |
| 1788118519 | 26.11° C | 72% | 1024 hPa | 0 mm | - | - | - |
| 1788118203 | 25.56° C | 71% | 1024.2 hPa | 0 mm | - | - | - |
| 1788117903 | 25.56° C | 74% | 1024.1 hPa | 0 mm | - | - | - |
| 1788117603 | 25° C | 76% | 1024.2 hPa | 0 mm | - | - | - |
| 1788117303 | 24.44° C | 76% | 1024.2 hPa | 0 mm | - | - | - |
| 1788117003 | 24.44° C | 77% | 1024.4 hPa | 0 mm | - | - | - |
| 1788116703 | 24.44° C | 76% | 1024.4 hPa | 0 mm | - | - | - |
| 1788116403 | 24.44° C | 76% | 1024.5 hPa | 0 mm | - | - | - |
* Rain latest hour (hover to see other rain measurements)
** Current wind speed in m/s (hover to see current wind gust speed)